TimeEST,TemperatureF,Dew PointF,Humidity,Sea Level PressureIn,VisibilityMPH,Wind Direction,Wind SpeedMPH,Gust SpeedMPH,PrecipitationIn,Events,Conditions,WindDirDegrees,DateUTC
12:51 AM,32.0,19.9,61,30.35,10.0,South,4.6,-,N/A,,Clear,190,2013-12-28 05:51:00
1:51 AM,32.0,21.0,64,30.33,10.0,South,4.6,-,N/A,,Clear,170,2013-12-28 06:51:00
2:51 AM,32.0,19.9,61,30.32,10.0,South,4.6,-,N/A,,Clear,180,2013-12-28 07:51:00
3:51 AM,30.0,19.9,66,30.32,10.0,Calm,Calm,-,N/A,,Clear,0,2013-12-28 08:51:00
4:51 AM,32.0,19.9,61,30.31,10.0,SSW,4.6,-,N/A,,Clear,200,2013-12-28 09:51:00
5:51 AM,32.0,19.9,61,30.33,10.0,Calm,Calm,-,N/A,,Clear,0,2013-12-28 10:51:00
6:51 AM,32.0,19.9,61,30.34,10.0,South,3.5,-,N/A,,Clear,190,2013-12-28 11:51:00
7:51 AM,32.0,21.0,64,30.35,10.0,South,5.8,-,N/A,,Clear,190,2013-12-28 12:51:00
8:51 AM,36.0,21.9,57,30.34,10.0,Calm,Calm,-,N/A,,Clear,0,2013-12-28 13:51:00
9:51 AM,39.9,21.9,49,30.35,10.0,SSW,5.8,-,N/A,,Clear,200,2013-12-28 14:51:00
10:51 AM,44.1,21.9,42,30.33,10.0,SSW,6.9,-,N/A,,Clear,200,2013-12-28 15:51:00
11:51 AM,46.9,23.0,39,30.31,10.0,SSW,4.6,-,N/A,,Clear,200,2013-12-28 16:51:00
12:51 PM,48.9,23.0,36,30.26,10.0,South,5.8,-,N/A,,Clear,170,2013-12-28 17:51:00
1:51 PM,52.0,23.0,32,30.26,10.0,South,5.8,-,N/A,,Clear,190,2013-12-28 18:51:00
2:51 PM,52.0,23.0,32,30.22,10.0,South,5.8,-,N/A,,Clear,180,2013-12-28 19:51:00
3:51 PM,51.1,23.0,33,30.23,10.0,South,8.1,-,N/A,,Clear,190,2013-12-28 20:51:00
4:51 PM,48.9,21.9,35,30.20,10.0,South,6.9,-,N/A,,Clear,180,2013-12-28 21:51:00
5:51 PM,48.0,21.0,34,30.20,10.0,SSW,4.6,-,N/A,,Clear,210,2013-12-28 22:51:00
6:51 PM,46.9,21.0,36,30.18,10.0,Calm,Calm,-,N/A,,Clear,0,2013-12-28 23:51:00
7:51 PM,46.0,21.0,37,30.17,10.0,Calm,Calm,-,N/A,,Clear,0,2013-12-29 00:51:00
8:51 PM,44.1,23.0,43,30.15,10.0,Calm,Calm,-,N/A,,Clear,0,2013-12-29 01:51:00
9:51 PM,44.1,24.1,45,30.12,10.0,SE,3.5,-,N/A,,Mostly Cloudy,130,2013-12-29 02:51:00
10:51 PM,42.1,26.1,53,30.10,10.0,ESE,3.5,-,0.00,Rain,Light Rain,120,2013-12-29 03:51:00
11:51 PM,44.1,28.9,55,30.06,10.0,SE,3.5,-,0.00,Rain,Light Rain,140,2013-12-29 04:51:00